Stündliche Wetter Otradnoe

Heute, 15 April, Donnerstag

Zeit Temperatur Niederschläge Wind Luftdruck Luftfeuchtigkeit
00:00 +12°C° 0 mm 1 m/S 745 mmHg 56%
01:00 +11°C° 0 mm 1 m/S 745 mmHg 59%
02:00 +11°C° 0 mm 1 m/S 744 mmHg 61%
03:00 +11°C° 0 mm 1 m/S 744 mmHg 62%
04:00 +10°C° 0 mm 1 m/S 744 mmHg 63%
05:00 +10°C° 0 mm 1 m/S 744 mmHg 65%
06:00 +10°C° 0 mm 2 m/S 745 mmHg 61%
07:00 +12°C° 0 mm 2 m/S 745 mmHg 58%
08:00 +12°C° 0 mm 3 m/S 745 mmHg 54%
09:00 +14°C° 0 mm 3 m/S 745 mmHg 50%
10:00 +16°C° 0 mm 3 m/S 745 mmHg 46%
11:00 +17°C° 0 mm 2 m/S 745 mmHg 43%
12:00 +18°C° 0 mm 3 m/S 745 mmHg 41%
13:00 +19°C° 0 mm 3 m/S 745 mmHg 39%
14:00 +19°C° 0 mm 4 m/S 745 mmHg 37%
15:00 +19°C° 0 mm 4 m/S 745 mmHg 41%
16:00 +17°C° 0 mm 5 m/S 745 mmHg 45%
17:00 +16°C° 0 mm 5 m/S 745 mmHg 48%
18:00 +15°C° 0 mm 6 m/S 745 mmHg 56%
19:00 +14°C° 0 mm 6 m/S 745 mmHg 64%
20:00 +11°C° 0 mm 6 m/S 745 mmHg 72%
21:00 +10°C° 0 mm 6 m/S 745 mmHg 75%
22:00 +10°C° 0 mm 6 m/S 746 mmHg 79%
23:00 +9°C° 0 mm 5 m/S 746 mmHg 83%

Morgen, 16 April, Freitag

Zeit Temperatur Niederschläge Wind Luftdruck Luftfeuchtigkeit
00:00 +8°C° 0 mm 5 m/S 746 mmHg 84%
01:00 +8°C° 0 mm 5 m/S 746 mmHg 85%
02:00 +7°C° 0 mm 5 m/S 746 mmHg 86%
03:00 +7°C° 0 mm 5 m/S 746 mmHg 87%
04:00 +6°C° 0 mm 5 m/S 746 mmHg 88%
05:00 +6°C° 0 mm 5 m/S 747 mmHg 88%
06:00 +7°C° 0 mm 5 m/S 747 mmHg 84%
07:00 +7°C° 0 mm 5 m/S 747 mmHg 81%
08:00 +8°C° 0 mm 5 m/S 748 mmHg 77%
09:00 +9°C° 0 mm 5 m/S 748 mmHg 71%
10:00 +12°C° 0 mm 5 m/S 748 mmHg 66%
11:00 +13°C° 0 mm 5 m/S 748 mmHg 60%
12:00 +14°C° 0 mm 5 m/S 748 mmHg 58%
13:00 +14°C° 0 mm 5 m/S 748 mmHg 55%
14:00 +15°C° 0 mm 5 m/S 748 mmHg 53%
15:00 +15°C° 0 mm 5 m/S 748 mmHg 56%
16:00 +14°C° 0 mm 5 m/S 748 mmHg 58%
17:00 +14°C° 0 mm 6 m/S 748 mmHg 61%
18:00 +13°C° 0 mm 6 m/S 748 mmHg 64%
19:00 +11°C° 0 mm 6 m/S 748 mmHg 66%
20:00 +10°C° 0 mm 6 m/S 749 mmHg 69%
21:00 +9°C° 0 mm 5 m/S 749 mmHg 71%
22:00 +9°C° 0 mm 5 m/S 749 mmHg 72%
23:00 +8°C° 0 mm 5 m/S 749 mmHg 74%

übermorgen, 17 April, Samstag

Zeit Temperatur Niederschläge Wind Luftdruck Luftfeuchtigkeit
00:00 +8°C° 0 mm 5 m/S 749 mmHg 76%
01:00 +7°C° 0 mm 5 m/S 749 mmHg 78%
02:00 +6°C° 0 mm 5 m/S 749 mmHg 80%
03:00 +6°C° 0 mm 5 m/S 750 mmHg 80%
04:00 +6°C° 0 mm 4 m/S 750 mmHg 79%
05:00 +5°C° 0 mm 4 m/S 750 mmHg 79%
06:00 +6°C° 0.1 mm 5 m/S 750 mmHg 74%
07:00 +7°C° 0.1 mm 5 m/S 751 mmHg 69%
08:00 +7°C° 0.1 mm 5 m/S 751 mmHg 64%
09:00 +8°C° 0 mm 5 m/S 751 mmHg 61%
10:00 +9°C° 0 mm 5 m/S 751 mmHg 57%
11:00 +10°C° 0 mm 5 m/S 751 mmHg 53%
12:00 +12°C° 0 mm 5 m/S 751 mmHg 50%
13:00 +13°C° 0 mm 5 m/S 751 mmHg 46%
14:00 +14°C° 0 mm 6 m/S 751 mmHg 43%
15:00 +14°C° 0 mm 5 m/S 751 mmHg 42%
16:00 +13°C° 0 mm 5 m/S 751 mmHg 41%
17:00 +13°C° 0 mm 5 m/S 751 mmHg 40%
18:00 +10°C° 0 mm 5 m/S 751 mmHg 42%
19:00 +9°C° 0 mm 5 m/S 751 mmHg 44%
20:00 +8°C° 0 mm 4 m/S 751 mmHg 47%
21:00 +7°C° 0 mm 4 m/S 752 mmHg 50%
22:00 +6°C° 0 mm 4 m/S 752 mmHg 54%
23:00 +6°C° 0 mm 4 m/S 752 mmHg 58%

18 April, Sonntag

Zeit Temperatur Niederschläge Wind Luftdruck Luftfeuchtigkeit
00:00 +5°C° 0 mm 3 m/S 752 mmHg 61%
01:00 +4°C° 0 mm 3 m/S 752 mmHg 64%
02:00 +4°C° 0 mm 3 m/S 753 mmHg 66%
03:00 +4°C° 0 mm 3 m/S 753 mmHg 68%
04:00 +3°C° 0 mm 3 m/S 753 mmHg 69%
05:00 +3°C° 0 mm 3 m/S 753 mmHg 70%
06:00 +4°C° 0 mm 3 m/S 753 mmHg 64%
07:00 +6°C° 0 mm 4 m/S 753 mmHg 57%
08:00 +7°C° 0 mm 4 m/S 753 mmHg 51%
09:00 +10°C° 0 mm 4 m/S 754 mmHg 47%
10:00 +11°C° 0 mm 4 m/S 754 mmHg 43%
11:00 +12°C° 0 mm 4 m/S 754 mmHg 39%
12:00 +12°C° 0 mm 4 m/S 754 mmHg 37%
13:00 +13°C° 0 mm 4 m/S 754 mmHg 35%
14:00 +13°C° 0 mm 4 m/S 754 mmHg 33%
15:00 +13°C° 0 mm 4 m/S 754 mmHg 35%
16:00 +13°C° 0 mm 4 m/S 754 mmHg 36%
17:00 +13°C° 0 mm 4 m/S 754 mmHg 38%
18:00 +11°C° 0 mm 3 m/S 754 mmHg 43%
19:00 +10°C° 0 mm 3 m/S 754 mmHg 49%
20:00 +9°C° 0 mm 2 m/S 754 mmHg 54%
21:00 +8°C° 0 mm 2 m/S 754 mmHg 57%
22:00 +7°C° 0 mm 2 m/S 754 mmHg 61%
23:00 +7°C° 0 mm 2 m/S 755 mmHg 64%

19 April, Montag

Zeit Temperatur Niederschläge Wind Luftdruck Luftfeuchtigkeit
00:00 +6°C° 0 mm 2 m/S 755 mmHg 65%
01:00 +6°C° 0 mm 2 m/S 755 mmHg 67%
02:00 +6°C° 0 mm 2 m/S 755 mmHg 69%
03:00 +5°C° 0 mm 2 m/S 755 mmHg 71%
04:00 +4°C° 0 mm 3 m/S 756 mmHg 74%
05:00 +4°C° 0 mm 3 m/S 756 mmHg 77%
06:00 +5°C° 0 mm 3 m/S 756 mmHg 72%
07:00 +6°C° 0 mm 4 m/S 756 mmHg 68%
08:00 +7°C° 0 mm 4 m/S 756 mmHg 63%
09:00 +8°C° 0 mm 4 m/S 756 mmHg 58%
10:00 +9°C° 0 mm 5 m/S 756 mmHg 52%
11:00 +10°C° 0 mm 5 m/S 756 mmHg 47%
12:00 +12°C° 0 mm 5 m/S 755 mmHg 45%
13:00 +12°C° 0 mm 5 m/S 755 mmHg 42%
14:00 +12°C° 0 mm 5 m/S 755 mmHg 39%
15:00 +12°C° 0 mm 5 m/S 755 mmHg 40%
16:00 +12°C° 0 mm 4 m/S 755 mmHg 40%
17:00 +11°C° 0 mm 4 m/S 754 mmHg 41%
18:00 +10°C° 0 mm 4 m/S 754 mmHg 43%
19:00 +8°C° 0 mm 4 m/S 754 mmHg 44%
20:00 +7°C° 0 mm 4 m/S 754 mmHg 46%
21:00 +6°C° 0 mm 4 m/S 754 mmHg 48%
22:00 +5°C° 0 mm 4 m/S 754 mmHg 49%
23:00 +5°C° 0 mm 5 m/S 754 mmHg 50%

20 April, Dienstag

Zeit Temperatur Niederschläge Wind Luftdruck Luftfeuchtigkeit
00:00 +3°C° 0 mm 5 m/S 754 mmHg 52%
01:00 +3°C° 0 mm 4 m/S 754 mmHg 53%
02:00 +3°C° 0 mm 4 m/S 754 mmHg 55%
03:00 +1°C° 0 mm 4 m/S 753 mmHg 56%
04:00 +1°C° 0 mm 5 m/S 753 mmHg 58%
05:00 +1°C° 0 mm 5 m/S 753 mmHg 59%
06:00 +2°C° 0 mm 5 m/S 753 mmHg 56%
07:00 +3°C° 0 mm 6 m/S 752 mmHg 53%
08:00 +4°C° 0 mm 6 m/S 752 mmHg 50%
09:00 +5°C° 0 mm 7 m/S 751 mmHg 48%
10:00 +6°C° 0 mm 7 m/S 751 mmHg 45%
11:00 +7°C° 0 mm 8 m/S 750 mmHg 42%
12:00 +9°C° 0 mm 8 m/S 750 mmHg 40%
13:00 +10°C° 0 mm 8 m/S 749 mmHg 37%
14:00 +10°C° 0 mm 8 m/S 749 mmHg 34%
15:00 +10°C° 0 mm 8 m/S 749 mmHg 35%
16:00 +9°C° 0 mm 8 m/S 748 mmHg 36%
17:00 +9°C° 0 mm 8 m/S 748 mmHg 37%
18:00 +6°C° 0.1 mm 8 m/S 747 mmHg 44%
19:00 +5°C° 0.1 mm 8 m/S 747 mmHg 51%
20:00 +4°C° 0.1 mm 8 m/S 747 mmHg 57%
21:00 +2°C° 0.1 mm 8 m/S 747 mmHg 67%
22:00 +1°C° 0.1 mm 8 m/S 746 mmHg 77%
23:00 0°C° 0.1 mm 8 m/S 746 mmHg 87%
Mehr zeigen

Wir brauchen deine Erlaubnis

Meteoprog und unser Service Anbieter werden persönliche Daten aufbewahren, so wie Cookies, Geräte Bezeichnung oder ähnliche Technologien von deinem Gerät und Prozess, so wie Persönliche Daten Inhalte und Werbungen, genauso wie social Media und den Verkehr zu analysieren.

  • Aufbewahrung und/oder Zugang zu deiner Geräte Informationen.

    Cookies, Geräte Bezeichnung oder andere Informationen, können aufbewahrt oder Zugang zu deinem Gerät erhalten, für den Grund, der oben angegeben wird.

  • Personalisierte Werbung und Inhalte, Messungen, Einblick in das Publikum und Produkt Entwicklung.

    Werbungen und Inhalte können personalisiert werden, basierend auf ein Profil. Mehr Daten können besser personalisierte Werbungen und Inhalte hinzufügen. Werbung und Inhalte können gezeigt und gemessen werden. Einblicke über das Publikum, welche die Werbung gesehen haben und den Inhalt, können abgeleitet werden. So wie Daten können genutzt werden, um es zu verbessern oder die Benutzer Erfahrung zu verbessern das System und die Software.

Wenn du “Ich stimme zu” klickst, erlaubst du uns, die Cookies zu benutzen die Geräte Bezeichnung, den Web oder ähnliche Technologien zu benutzen. Deine Settings, können in deinem Gerät bei deinem Browser geändert werden.

Für den bestimmten Zweck, berechtigten Interessen beruhen darauf, mehr als auf den Inhalt. Du kannst mehr darüber in unseren Privaten und Cookie Politik lesen.